GW2276 Weather Reports


time (UTC)temp
C
wind
direction
speed
KPH
gust
KPH
rain 1hr
cm
rain 24hr
cm
rain mn
cm
humidity
%
barometer
mb
20260504202535 23 237 8.0 17.7 0.00 0.00 0.00 31 1004.0
20260504202038 23 236 6.4 16.1 0.00 0.00 0.00 31 1004.0
20260504201543 22 212 8.0 19.3 0.00 0.00 0.00 34 1004.0
20260504201036 22 229 8.0 19.3 0.00 0.00 0.00 29 1004.0
20260504200536 22 253 6.4 16.1 0.00 0.00 0.00 34 1004.3
20260504200056 22 165 6.4 16.1 0.00 0.00 0.00 35 1004.4
20260504195536 22 270 6.4 16.1 0.00 0.00 0.00 35 1004.4
20260504195039 22 224 6.4 24.1 0.00 0.00 0.00 33 1004.6
20260504194554 22 227 8.0 24.1 0.00 0.00 0.00 34 1004.7
20260504194035 22 264 11.3 25.7 0.00 0.00 0.00 34 1004.7
20260504193536 22 238 9.7 25.7 0.00 0.00 0.00 34 1004.7
20260504193050 22 238 11.3 25.7 0.00 0.00 0.00 32 1004.9
20260504192535 22 212 12.9 25.7 0.00 0.00 0.00 33 1005.0
20260504192035 22 217 11.3 25.7 0.00 0.00 0.00 33 1005.1
20260504191549 22 261 8.0 27.4 0.00 0.00 0.00 35 1005.2
20260504191035 22 209 12.9 27.4 0.00 0.00 0.00 33 1005.2
20260504190536 22 221 12.9 27.4 0.00 0.00 0.00 33 1005.1
20260504190055 22 224 11.3 25.7 0.00 0.00 0.00 36 1005.2
20260504185535 22 203 14.5 27.4 0.00 0.00 0.00 33 1005.2
20260504185035 22 248 11.3 27.4 0.00 0.00 0.00 34 1005.3
20260504184558 22 191 14.5 27.4 0.00 0.00 0.00 37 1005.3
20260504184036 22 229 12.9 22.5 0.00 0.00 0.00 35 1005.3
20260504183536 22 226 11.3 25.7 0.00 0.00 0.00 36 1005.3
20260504183046 21 269 12.9 25.7 0.00 0.00 0.00 36 1005.4
20260504182539 21 211 11.3 19.3 0.00 0.00 0.00 38 1005.5
20260504182038 21 228 9.7 20.9 0.00 0.00 0.00 43 1005.5
20260504181551 21 266 9.7 29.0 0.00 0.00 0.00 41 1005.3
20260504181037 21 244 11.3 29.0 0.00 0.00 0.00 40 1005.4
20260504180537 21 243 11.3 29.0 0.00 0.00 0.00 39 1005.5
20260504180050 21 256 14.5 29.0 0.00 0.00 0.00 38 1005.6
20260504175538 21 269 11.3 22.5 0.00 0.00 0.00 39 1005.6
20260504175037 21 240 9.7 22.5 0.00 0.00 0.00 40 1005.6
20260504174552 20 215 12.9 24.1 0.00 0.00 0.00 40 1005.5
20260504174038 20 209 14.5 24.1 0.00 0.00 0.00 39 1005.7
20260504173538 20 218 9.7 19.3 0.00 0.00 0.00 42 1005.6
20260504173050 20 249 9.7 17.7 0.00 0.00 0.00 43 1005.8
20260504172537 20 252 8.0 16.1 0.00 0.00 0.00 44 1005.8
20260504172038 20 120 8.0 17.7 0.00 0.00 0.00 43 1005.8
20260504171552 20 211 6.4 24.1 0.00 0.00 0.00 45 1005.9
20260504171037 20 219 11.3 27.4 0.00 0.00 0.00 44 1005.9
20260504170538 20 239 12.9 27.4 0.00 0.00 0.00 44 1006.0
20260504151036 17 180 11.3 25.7 0.00 0.00 0.00 45 1006.6
20260504150537 17 232 9.7 24.1 0.00 0.00 0.00 45 1006.6
20260504141036 15 145 11.3 22.5 0.00 0.00 0.00 46 1007.2
20260504140537 15 165 9.7 20.9 0.00 0.00 0.00 48 1007.1
20260504130537 12 167 6.4 27.4 0.00 0.00 0.00 52 1008.1
20260504110537 10 175 6.4 17.7 0.00 0.00 0.00 57 1007.9
20260504100537 10 202 4.8 17.7 0.00 0.00 0.00 55 1007.9
20260504081542 10 219 4.8 16.1 0.00 0.00 0.00 54 1008.3
20260504081037 10 151 4.8 17.7 0.00 0.00 0.00 54 1008.3
20260504080537 10 157 6.4 17.7 0.00 0.00 0.00 54 1008.3
20260504050536 10 167 0.0 8.0 0.00 0.00 0.00 53 1009.0
20260504045536 10 174 1.6 8.0 0.00 0.00 0.00 53 1009.0
20260504045035 10 160 1.6 4.8 0.00 0.00 0.00 54 1009.0
20260504044557 10 0 1.6 3.2 0.00 0.00 0.00 51 1009.1
20260504044037 10 167 0.0 8.0 0.00 0.00 0.00 51 1009.2
20260504043554 10 0 0.0 8.0 0.00 0.00 0.00 51 1009.1
20260504043043 11 157 1.6 8.0 0.00 0.00 0.00 49 1009.2
20260504042537 11 145 1.6 11.3 0.00 0.00 0.00 50 1009.2
20260504042038 11 153 1.6 11.3 0.00 0.00 0.00 49 1009.2
20260504041541 11 169 3.2 6.4 0.00 0.00 0.00 49 1009.1
20260504041036 11 0 1.6 8.0 0.00 0.00 0.00 49 1009.2
20260504040537 11 169 0.0 8.0 0.00 0.00 0.00 50 1009.2
20260504040045 10 139 1.6 8.0 0.00 0.00 0.00 50 1009.2
20260504035540 10 176 1.6 8.0 0.00 0.00 0.00 51 1009.3
20260504035036 10 143 0.0 4.8 0.00 0.00 0.00 52 1009.2
20260504034600 10 274 0.0 3.2 0.00 0.00 0.00 53 1009.3
20260504034036 10 0 0.0 3.2 0.00 0.00 0.00 52 1009.2
20260504033536 11 179 0.0 3.2 0.00 0.00 0.00 52 1009.2
20260504033044 11 0 0.0 4.8 0.00 0.00 0.00 52 1009.2
20260504032536 11 0 0.0 4.8 0.00 0.00 0.00 49 1009.3
20260504032037 11 153 0.0 6.4 0.00 0.00 0.00 50 1009.4
20260504031542 11 148 1.6 6.4 0.00 0.00 0.00 51 1009.5
20260504031035 11 120 0.0 1.6 0.00 0.00 0.00 50 1009.6
20260504030535 11 155 0.0 3.2 0.00 0.00 0.00 50 1009.6
20260504030044 11 0 0.0 4.8 0.00 0.00 0.00 48 1009.5
20260504025535 11 179 1.6 4.8 0.00 0.00 0.00 46 1009.5
20260504025036 11 155 0.0 3.2 0.00 0.00 0.00 46 1009.6
20260504024545 11 177 0.0 3.2 0.00 0.00 0.00 45 1009.7
20260504024037 11 149 1.6 3.2 0.00 0.00 0.00 44 1009.7
20260504023536 11 198 0.0 3.2 0.00 0.00 0.00 45 1009.6
20260504023040 12 195 1.6 3.2 0.00 0.00 0.00 43 1009.7
20260504022536 12 0 0.0 3.2 0.00 0.00 0.00 43 1009.7
20260504022037 12 0 0.0 4.8 0.00 0.00 0.00 44 1009.8
20260504021543 12 247 1.6 4.8 0.00 0.00 0.00 42 1009.8
20260504021037 12 0 0.0 3.2 0.00 0.00 0.00 43 1009.8
20260504020535 12 300 0.0 4.8 0.00 0.00 0.00 43 1009.8
20260504020042 12 266 1.6 4.8 0.00 0.00 0.00 41 1009.9
20260504015536 12 236 1.6 8.0 0.00 0.00 0.00 41 1009.9
20260504015036 12 281 1.6 8.0 0.00 0.00 0.00 41 1010.0
20260504014553 12 252 1.6 8.0 0.00 0.00 0.00 41 1010.0
20260504014036 12 205 1.6 8.0 0.00 0.00 0.00 41 1010.0
20260504013536 12 274 3.2 8.0 0.00 0.00 0.00 42 1010.1
20260504013047 12 286 3.2 8.0 0.00 0.00 0.00 41 1010.0
20260504012537 12 252 3.2 17.7 0.00 0.00 0.00 41 1010.0
20260504012036 12 233 3.2 17.7 0.00 0.00 0.00 40 1010.0
20260504011545 12 186 4.8 17.7 0.00 0.00 0.00 41 1009.9
20260504011035 12 205 1.6 9.7 0.00 0.00 0.00 41 1009.9
20260504010537 12 264 4.8 11.3 0.00 0.00 0.00 40 1009.9
20260504010045 12 211 3.2 12.9 0.00 0.00 0.00 40 1009.8
20260504005536 12 261 3.2 12.9 0.00 0.00 0.00 41 1009.8
20260504005036 12 198 4.8 20.9 0.00 0.00 0.00 40 1009.8
20260504004543 12 243 11.3 20.9 0.00 0.00 0.00 40 1009.8
20260504004036 12 293 11.3 27.4 0.00 0.00 0.00 38 1009.9
20260504003536 13 167 9.7 27.4 0.00 0.00 0.00 38 1009.8
20260504003052 12 243 8.0 16.1 0.00 0.00 0.00 39 1009.8
20260504002536 12 277 6.4 16.1 0.00 0.00 0.00 40 1009.7
20260504002035 12 261 3.2 16.1 0.00 0.00 0.00 41 1009.6
20260504001542 12 244 4.8 16.1 0.00 0.00 0.00 40 1009.5
20260504001037 12 286 4.8 11.3 0.00 0.00 0.00 40 1009.2
20260504000536 12 297 4.8 11.3 0.00 0.00 0.00 41 1009.1
20260504000046 12 261 6.4 11.3 0.00 0.00 0.00 40 1009.1
20260503235538 12 250 0.0 6.4 0.00 0.00 0.00 39 1009.1
20260503235036 12 271 1.6 8.0 0.00 0.00 0.00 38 1008.9
20260503234548 12 164 0.0 8.0 0.00 0.00 0.00 39 1008.9
20260503234036 12 184 3.2 8.0 0.00 0.00 0.00 39 1008.9
20260503233536 13 238 3.2 8.0 0.00 0.00 0.00 39 1008.8
20260503233042 13 323 3.2 14.5 0.00 0.00 0.00 39 1008.9
20260503232535 13 266 4.8 16.1 0.00 0.00 0.00 38 1008.8
20260503232035 13 197 8.0 22.5 0.00 0.00 0.00 39 1008.9
20260503231544 13 259 9.7 27.4 0.00 0.00 0.00 38 1008.9
20260503231036 13 333 12.9 27.4 0.00 0.00 0.00 38 1009.1
20260503230537 13 307 11.3 27.4 0.00 0.00 0.00 38 1009.1
20260503230044 13 229 9.7 24.1 0.00 0.00 0.00 40 1009.0
20260503225535 13 322 9.7 24.1 0.00 0.00 0.00 40 1009.0
20260503225037 12 278 9.7 22.5 0.00 0.00 0.00 39 1008.8
20260503224546 12 341 1.6 6.4 0.00 0.00 0.00 44 1008.9
20260503224036 13 0 0.0 9.7 0.00 0.00 0.00 45 1008.7
20260503223536 13 282 3.2 9.7 0.00 0.00 0.00 41 1008.8
20260503223038 13 243 1.6 12.9 0.00 0.00 0.00 41 1008.7
20260503222535 13 232 1.6 12.9 0.00 0.00 0.00 41 1008.7
20260503222035 13 283 3.2 9.7 0.00 0.00 0.00 41 1008.6
20260503221543 13 160 3.2 8.0 0.00 0.00 0.00 41 1008.7
20260503221038 13 163 4.8 11.3 0.00 0.00 0.00 42 1008.7
20260503220538 13 161 4.8 12.9 0.00 0.00 0.00 43 1008.8
20260503220049 13 197 3.2 12.9 0.00 0.00 0.00 41 1008.9
20260503215538 13 285 4.8 12.9 0.00 0.00 0.00 42 1008.8
20260503215039 13 266 6.4 19.3 0.00 0.00 0.00 42 1008.9
20260503214549 13 261 6.4 19.3 0.00 0.00 0.00 42 1008.9
20260503214038 13 283 8.0 19.3 0.00 0.00 0.00 42 1008.9
20260503213537 13 223 6.4 19.3 0.00 0.00 0.00 42 1008.8
20260503213056 13 245 8.0 17.7 0.00 0.00 0.00 40 1008.8
20260503212539 13 198 4.8 17.7 0.00 0.00 0.00 42 1008.9
20260503212038 13 240 8.0 17.7 0.00 0.00 0.00 42 1008.8
20260503211550 13 271 3.2 12.9 0.00 0.00 0.00 42 1008.8
20260503211038 13 254 6.4 12.9 0.00 0.00 0.00 41 1008.8
20260503210538 13 255 1.6 9.7 0.00 0.00 0.00 42 1008.9
20260503210047 13 239 1.6 6.4 0.00 0.00 0.00 41 1008.9
20260503205538 12 219 3.2 6.4 0.00 0.00 0.00 42 1009.0
20260503205038 12 274 3.2 6.4 0.00 0.00 0.00 42 1009.1
20260503204542 12 278 3.2 6.4 0.00 0.00 0.00 44 1009.2
20260503204040 12 224 1.6 8.0 0.00 0.00 0.00 43 1009.2
20260503203538 12 227 1.6 8.0 0.00 0.00 0.00 44 1009.3
20260503203041 12 216 3.2 9.7 0.00 0.00 0.00 44 1009.4